#timestamp,LO_Frequency,Hit,StdDev 
1704175215.4,286047001.1,N
1704175235.3,286047001.2,N
1704175255.1,286046998.9,N
1704175256.0,286046998.9,N
1704175275.8,286046997.0,N
1704175295.7,286046996.9,N
1704175315.5,286046999.4,N
1704175335.4,286046998.4,N
1704175355.2,286046998.3,N
1704175375.0,286046999.3,N
1704175375.9,286046999.3,N
1704175395.8,286046998.3,N
1704175415.6,286047001.2,N
1704175435.4,286047000.7,N
1704175455.3,286047000.6,N
1704175475.1,286047000.5,N
1704175495.9,286047000.4,N
1704175515.7,286047000.5,N
1704175535.5,286047000.2,N
1704175555.4,286047002.7,N
1704175575.2,286047000.7,N
1704175595.0,286047002.3,N
1704175595.9,286047002.3,N
1704175615.8,286047000.1,N
1704175635.6,286047002.8,N
1704175655.5,286047002.4,N
1704175675.3,286047000.2,N
1704175695.1,286047000.0,N
1704175715.9,286046999.9,N
1704175735.7,286047002.4,N
1704175755.5,286047002.7,N
1704175775.4,286047002.6,N
1704175795.2,286047001.2,N
1704175815.1,286047001.2,N
1704175816.0,286047001.2,N
1704175835.8,286046998.5,N
1704175855.6,286046998.6,N
1704175875.5,286046999.2,N
1704175895.3,286046999.0,N
1704175915.2,286047001.0,N
1704175935.9,286047000.9,N
1704175955.7,286047001.1,N
1704175975.6,286047000.7,N
1704175995.4,286046999.9,N
1704176015.2,286047001.1,N
1704176035.1,286047001.0,N
1704176036.0,286047001.0,N
1704176055.8,286047000.8,N
1704176075.7,286047001.1,N
1704176095.5,286047000.9,N
1704176115.3,286046999.9,N
1704176135.2,286047002.8,N
1704176155.0,286047001.1,N
1704176155.9,286047001.1,N
1704176175.7,286047000.7,N
1704176195.6,286047000.2,N
1704176215.4,286047000.1,N
1704176235.3,286047002.2,N
1704176255.1,286047002.7,N
1704176275.8,286047000.1,N
1704176295.7,286047000.3,N
1704176315.5,286047000.5,N
1704176335.4,286047000.6,N
1704176355.2,286047001.0,N
1704176375.0,286047000.8,N
1704176375.9,286047000.8,N
1704176395.8,286047000.9,N
1704176415.6,286046999.8,N
1704176435.4,286047001.6,N
1704176455.3,286047001.5,N
1704176475.1,286047001.3,N
1704176495.9,286047002.3,Y
1704176515.7,286047002.7,P
1704176535.5,286047000.2,N
1704176555.4,286047000.4,N
1704176575.2,286046998.2,N
1704176595.0,286047000.6,N
1704176596.0,286047000.6,N
1704176615.8,286047000.9,N
1704176635.6,286046999.0,N
1704176655.5,286046998.3,N
1704176675.3,286046996.5,N
1704176695.1,286046997.8,N
1704176715.9,286046997.4,N
1704176735.7,286046995.0,N
1704176755.6,286046997.8,N
1704176775.4,286046997.1,N
1704176795.2,286046999.2,N
1704176815.1,286046999.2,N
1704176816.0,286046999.2,N
1704176835.8,286046999.0,N
1704176855.7,286046998.7,N
1704176875.5,286046999.3,N
1704176895.3,286046997.7,N
1704176915.2,286046995.2,N
1704176935.0,286046997.5,N
1704176935.9,286046997.5,N
1704176955.7,286046997.7,N
1704176975.6,286046996.5,N
1704176995.4,286046996.7,N
1704177015.3,286046999.5,N
1704177035.1,286046996.6,N
1704177055.8,286046997.8,N
1704177075.7,286046995.3,Y
1704177125.6,286046999.5,E
1704177135.5,286046999.3,N
1704177155.3,286047001.0,P
1704177175.2,286047001.0,N
1704177195.9,286046998.6,N
1704177215.7,286047001.2,N
1704177235.6,286047001.2,N
1704177255.4,286046998.4,N
1704177275.2,286046998.2,N
1704177295.1,286046998.1,N
1704177315.9,286046998.4,N
1704177335.7,286046998.7,N
1704177355.5,286046997.1,N
1704177375.4,286046997.3,N
1704177395.2,286046997.7,N
1704177415.0,286046997.4,N
1704177415.9,286046997.4,N
1704177435.8,286046995.2,Y
1704177455.6,286046998.4,P
1704177475.5,286046999.1,P
1704177495.3,286046998.8,P
1704177515.1,286046999.0,Y
1704177535.9,286047000.7,P
1704177555.7,286046998.5,N
1704177575.6,286046998.4,N
1704177595.4,286046998.4,N
1704177615.2,286046998.3,N
1704177635.1,286046996.8,Y
1704177636.0,286046996.8,P
1704177655.8,286046999.6,N
1704177675.6,286046997.4,N
1704177695.5,286046997.5,N
1704177715.3,286046996.5,Y
1704177735.2,286047000.5,P
1704177755.9,286047000.9,N
1704177775.7,286047000.6,N
1704177795.6,286047001.0,N
1704177815.4,286047001.0,N
1704177835.3,286047000.2,N
1704177855.1,286047002.4,N
1704177856.0,286047002.4,N
1704177875.8,286046999.8,N
1704177895.7,286047000.1,N
1704177915.5,286046998.8,N
1704177935.1,286046998.6,N
1704177936.0,286046998.6,N
1704177955.8,286047000.8,N
1704177975.7,286046998.8,N
1704177995.5,286046998.8,N
1704178015.3,286046998.1,N
1704178035.2,286046998.8,N
1704178055.0,286047000.7,N
1704178055.9,286047000.7,N
1704178075.7,286046998.7,N
1704178095.6,286046996.8,N
1704178115.4,286046996.5,N
1704178135.3,286046997.3,N
1704178155.1,286046997.4,N
1704178156.0,286046997.4,N
1704178175.8,286046997.7,N
1704178195.7,286046997.9,N
1704178215.5,286046997.7,N
1704178235.3,286046996.1,N
1704178255.2,286046996.2,N
1704178275.0,286046993.5,Y
1704178275.9,286046993.5,P
1704178295.8,286046998.0,N
1704178315.6,286046997.5,N
1704178335.4,286046997.6,N
1704178355.3,286046996.1,N
1704178375.1,286046997.6,N
1704178395.9,286046994.9,Y
1704178415.7,286046998.1,P
1704178435.5,286047000.8,N
1704178455.4,286047001.0,N
1704178475.2,286047000.7,N
1704178495.0,286046998.5,N
1704178495.9,286046998.5,N
1704178515.8,286047000.9,N
1704178535.6,286047001.0,N
1704178555.5,286046996.5,N
1704178575.3,286046998.9,N
1704178595.1,286046999.6,N
1704178615.9,286046999.0,N
1704178635.7,286046998.8,N
1704178655.6,286047001.2,N
1704178675.4,286046998.7,N
1704178695.2,286046998.8,N
1704178715.1,286046997.1,N
1704178716.0,286046997.1,N
1704178735.8,286046999.5,N
1704178755.6,286046997.0,N
1704178775.5,286046997.5,N
1704178795.3,286046995.0,Y
